Location: Newark
(60.5925°N, 45.5911°E)
Time: 11:11:34
(UTC+00:00)

ISS - Pass Details

Date: 25 September 2019
Orbit: 411 x 421 km, 51.6° (Epoch: 18 October)

Event Time Altitude Azimuth Distance (km) Brightness Sun altitude
Rises 17:01:12 0° 238° (WSW) 2,344 0.5 -16.3°
Reaches altitude 10° 17:03:44 10° 219° (SW) 1,482 -0.9 -16.6°
Enters shadow 17:05:24 17° 190° (S) 1,141 -1.8 -16.8°
